sat.trackr.live / text

‹ back to catalog

UM5-EOSAT

NORAD 60555 · 2024-149CR

PAYLOAD ACTIVE UNKNOWN

§ Identity

Operator
Country
MA
Launch date
2024-08-16
Launch site
AFWTR
Launch vehicle
Mass (kg)
RCS (m²)

External: N2YO · Heavens-Above · Gunter

§ Orbital elements

Epoch: 2026-05-25T04:18:28.728288Z

Period
95.91 min
Inclination
97.6655°
Eccentricity
0.0007879
Mean motion
15.01332370 rev/d
Perigee alt
557.3 km
Apogee alt
568.3 km
Semi-major
6,940.9 km
B*
2.5401e-4
RAAN
224.1998°
Arg perigee
181.9566°
Mean anomaly
178.1629°
Rev number
9,676

§ Raw data

UM5-EOSAT1 60555U 24149CR  26145.17949917  .00003213  00000+0  25401-3 0  99992 60555  97.6655 224.1998 0007879 181.9566 178.1629 15.01332370 96760

JSON: /api/v1/satellites/60555 · /tle

For live sub-satellite position, see the globe view (requires WebGL).

§ Visibility from observer

Set your observer location to see the next 7 days of passes ≥ 10°. The values pass through the URL so the page stays shareable.

No JS? Fill the form by hand. The geolocation button needs JavaScript.

§ Radio — SatNOGS DB

ModeDescriptionDownlinkUplink
GFSK Mode U - GFSK2k4 401.275 MHz

1 transmitter · refreshed weekly from db.satnogs.org